Time,TemperatureF,DewpointF,PressureIn,WindDirection,WindDirectionDegrees,WindSpeedMPH,WindSpeedGustMPH,Humidity,HourlyPrecipIn,Conditions,Clouds,dailyrainin,SoftwareType,DateUTC
2013-02-07 00:00:00,23.9,5.7,30.31,NNW,344,0.0,2.0,45,0.00,,,0.00,WeatherCatV1.12B45,2013-02-07 05:00:00,
2013-02-07 00:05:00,23.8,5.6,30.32,NNE,24,5.0,9.0,45,0.00,,,0.00,WeatherCatV1.12B45,2013-02-07 05:05:00,
2013-02-07 00:10:00,23.6,5.4,30.32,North,0,2.0,3.0,45,0.00,,,0.00,WeatherCatV1.12B45,2013-02-07 05:10:00,
2013-02-07 00:15:00,23.6,4.9,30.32,NE,41,4.0,8.0,44,0.00,,,0.00,WeatherCatV1.12B45,2013-02-07 05:15:00,
2013-02-07 00:20:00,23.4,4.7,30.32,North,6,2.0,4.0,44,0.00,,,0.00,WeatherCatV1.12B45,2013-02-07 05:20:00,
2013-02-07 00:25:00,23.2,5.0,30.32,North,8,3.0,4.0,45,0.00,,,0.00,WeatherCatV1.12B45,2013-02-07 05:25:00,
2013-02-07 00:30:00,23.1,5.0,30.32,North,0,1.0,4.0,45,0.00,,,0.00,WeatherCatV1.12B45,2013-02-07 05:30:00,
2013-02-07 00:35:00,22.8,4.7,30.32,WNW,299,1.0,5.0,45,0.00,,,0.00,WeatherCatV1.12B45,2013-02-07 05:35:00,
2013-02-07 00:40:00,22.8,4.2,30.32,WNW,303,1.0,3.0,44,0.00,,,0.00,WeatherCatV1.12B45,2013-02-07 05:40:00,
2013-02-07 00:45:00,22.6,4.0,30.32,NW,307,0.0,3.0,44,0.00,,,0.00,WeatherCatV1.12B45,2013-02-07 05:45:00,
2013-02-07 00:50:00,22.6,4.0,30.33,NW,310,3.0,3.0,44,0.00,,,0.00,WeatherCatV1.12B45,2013-02-07 05:50:00,
2013-02-07 00:55:00,22.4,4.8,30.33,NW,310,1.0,3.0,46,0.00,,,0.00,WeatherCatV1.12B45,2013-02-07 05:55:00,
2013-02-07 00:59:00,22.3,4.7,30.33,NW,310,0.0,4.0,46,0.00,,,0.00,WeatherCatV1.12B45,2013-02-07 05:59:00,
2013-02-07 01:04:00,22.1,4.0,30.33,NW,310,2.0,3.0,45,0.00,,,0.00,WeatherCatV1.12B45,2013-02-07 06:04:00,
2013-02-07 01:09:00,22.0,4.4,30.34,NW,310,0.0,0.0,46,0.00,,,0.00,WeatherCatV1.12B45,2013-02-07 06:09:00,
2013-02-07 01:14:00,21.9,4.8,30.34,NW,310,0.0,1.0,47,0.00,,,0.00,WeatherCatV1.12B45,2013-02-07 06:14:00,
2013-02-07 01:19:00,21.6,4.1,30.34,NW,310,0.0,0.0,46,0.00,,,0.00,WeatherCatV1.12B45,2013-02-07 06:19:00,
2013-02-07 01:24:00,21.2,4.2,30.34,NW,310,1.0,3.0,47,0.00,,,0.00,WeatherCatV1.12B45,2013-02-07 06:24:00,
2013-02-07 01:29:00,21.0,4.4,30.34,NW,310,2.0,4.0,48,0.00,,,0.00,WeatherCatV1.12B45,2013-02-07 06:29:00,
2013-02-07 01:34:00,21.1,4.5,30.34,NW,310,0.0,3.0,48,0.00,,,0.00,WeatherCatV1.12B45,2013-02-07 06:34:00,
2013-02-07 01:39:00,20.9,4.3,30.35,NW,310,1.0,4.0,48,0.00,,,0.00,WeatherCatV1.12B45,2013-02-07 06:39:00,
2013-02-07 01:44:00,20.9,3.9,30.35,NW,310,0.0,1.0,47,0.00,,,0.00,WeatherCatV1.12B45,2013-02-07 06:44:00,
2013-02-07 01:49:00,20.8,4.2,30.35,NW,310,0.0,1.0,48,0.00,,,0.00,WeatherCatV1.12B45,2013-02-07 06:49:00,
2013-02-07 01:54:00,20.6,4.1,30.35,North,2,3.0,5.0,48,0.00,,,0.00,WeatherCatV1.12B45,2013-02-07 06:54:00,
2013-02-07 01:59:00,20.5,3.5,30.35,North,4,1.0,2.0,47,0.00,,,0.00,WeatherCatV1.12B45,2013-02-07 06:59:00,
2013-02-07 02:04:00,20.3,3.3,30.35,North,4,0.0,1.0,47,0.00,,,0.00,WeatherCatV1.12B45,2013-02-07 07:04:00,
2013-02-07 02:09:00,20.1,3.1,30.36,North,6,0.0,2.0,47,0.00,,,0.00,WeatherCatV1.12B45,2013-02-07 07:09:00,
2013-02-07 02:14:00,19.9,3.0,30.36,North,6,0.0,2.0,47,0.00,,,0.00,WeatherCatV1.12B45,2013-02-07 07:14:00,
2013-02-07 02:19:00,19.6,2.7,30.36,North,6,0.0,0.0,47,0.00,,,0.00,WeatherCatV1.12B45,2013-02-07 07:19:00,
2013-02-07 02:24:00,19.4,3.0,30.36,North,6,2.0,3.0,48,0.00,,,0.00,WeatherCatV1.12B45,2013-02-07 07:24:00,
2013-02-07 02:29:00,19.3,3.3,30.36,North,6,1.0,1.0,49,0.00,,,0.00,WeatherCatV1.12B45,2013-02-07 07:29:00,
2013-02-07 02:34:00,19.0,3.0,30.36,North,6,0.0,0.0,49,0.00,,,0.00,WeatherCatV1.12B45,2013-02-07 07:34:00,
2013-02-07 02:39:00,18.7,3.2,30.36,North,6,0.0,0.0,50,0.00,,,0.00,WeatherCatV1.12B45,2013-02-07 07:39:00,
2013-02-07 02:44:00,18.5,3.0,30.35,North,6,0.0,0.0,50,0.00,,,0.00,WeatherCatV1.12B45,2013-02-07 07:44:00,
2013-02-07 02:49:00,18.3,3.7,30.36,North,6,0.0,0.0,52,0.00,,,0.00,WeatherCatV1.12B45,2013-02-07 07:49:00,
2013-02-07 02:54:00,18.2,3.1,30.36,North,6,0.0,0.0,51,0.00,,,0.00,WeatherCatV1.12B45,2013-02-07 07:54:00,
2013-02-07 02:59:00,17.9,3.3,30.36,North,6,0.0,2.0,52,0.00,,,0.00,WeatherCatV1.12B45,2013-02-07 07:59:00,
2013-02-07 03:04:00,17.5,3.3,30.36,North,6,0.0,0.0,53,0.00,,,0.00,WeatherCatV1.12B45,2013-02-07 08:04:00,
2013-02-07 03:09:00,17.4,3.2,30.36,North,6,0.0,0.0,53,0.00,,,0.00,WeatherCatV1.12B45,2013-02-07 08:09:00,
2013-02-07 03:14:00,17.1,3.7,30.37,North,6,0.0,2.0,55,0.00,,,0.00,WeatherCatV1.12B45,2013-02-07 08:14:00,
2013-02-07 03:19:00,17.1,4.1,30.38,North,6,0.0,0.0,56,0.00,,,0.00,WeatherCatV1.12B45,2013-02-07 08:19:00,
2013-02-07 03:24:00,16.9,4.3,30.39,North,6,0.0,0.0,57,0.00,,,0.00,WeatherCatV1.12B45,2013-02-07 08:24:00,
2013-02-07 03:29:00,16.8,4.2,30.39,North,6,0.0,0.0,57,0.00,,,0.00,WeatherCatV1.12B45,2013-02-07 08:29:00,
2013-02-07 03:34:00,16.6,4.1,30.40,North,6,0.0,0.0,57,0.00,,,0.00,WeatherCatV1.12B45,2013-02-07 08:34:00,
2013-02-07 03:39:00,16.4,4.6,30.40,North,6,0.0,0.0,59,0.00,,,0.00,WeatherCatV1.12B45,2013-02-07 08:39:00,
2013-02-07 03:44:00,16.3,4.5,30.40,North,6,0.0,0.0,59,0.00,,,0.00,WeatherCatV1.12B45,2013-02-07 08:44:00,
2013-02-07 03:49:00,16.3,4.5,30.40,North,6,0.0,0.0,59,0.00,,,0.00,WeatherCatV1.12B45,2013-02-07 08:49:00,
2013-02-07 03:54:00,16.1,4.0,30.41,North,6,0.0,0.0,58,0.00,,,0.00,WeatherCatV1.12B45,2013-02-07 08:54:00,
2013-02-07 03:59:00,16.1,4.0,30.41,North,6,0.0,0.0,58,0.00,,,0.00,WeatherCatV1.12B45,2013-02-07 08:59:00,
2013-02-07 04:04:00,16.3,3.8,30.41,North,6,0.0,0.0,57,0.00,,,0.00,WeatherCatV1.12B45,2013-02-07 09:04:00,
2013-02-07 04:09:00,16.6,3.3,30.41,North,6,0.0,0.0,55,0.00,,,0.00,WeatherCatV1.12B45,2013-02-07 09:09:00,
2013-02-07 04:14:00,16.8,3.1,30.42,North,6,0.0,2.0,54,0.00,,,0.00,WeatherCatV1.12B45,2013-02-07 09:14:00,
2013-02-07 04:19:00,16.9,2.4,30.42,North,6,0.0,1.0,52,0.00,,,0.00,WeatherCatV1.12B45,2013-02-07 09:19:00,
2013-02-07 04:24:00,17.1,3.0,30.43,North,6,0.0,0.0,53,0.00,,,0.00,WeatherCatV1.12B45,2013-02-07 09:24:00,
2013-02-07 04:29:00,17.1,2.5,30.42,North,6,0.0,2.0,52,0.00,,,0.00,WeatherCatV1.12B45,2013-02-07 09:29:00,
2013-02-07 04:34:00,17.4,2.8,30.42,North,6,0.0,0.0,52,0.00,,,0.00,WeatherCatV1.12B45,2013-02-07 09:34:00,
2013-02-07 04:39:00,17.4,2.4,30.42,North,6,0.0,0.0,51,0.00,,,0.00,WeatherCatV1.12B45,2013-02-07 09:39:00,
2013-02-07 04:44:00,17.4,2.4,30.42,North,6,0.0,0.0,51,0.00,,,0.00,WeatherCatV1.12B45,2013-02-07 09:44:00,
2013-02-07 04:49:00,17.2,2.2,30.42,North,6,0.0,0.0,51,0.00,,,0.00,WeatherCatV1.12B45,2013-02-07 09:49:00,
2013-02-07 04:54:00,17.2,2.6,30.43,North,6,0.0,0.0,52,0.00,,,0.00,WeatherCatV1.12B45,2013-02-07 09:54:00,
2013-02-07 04:59:00,17.1,2.1,30.43,North,6,0.0,0.0,51,0.00,,,0.00,WeatherCatV1.12B45,2013-02-07 09:59:00,
2013-02-07 05:04:00,17.1,3.0,30.43,North,6,0.0,0.0,53,0.00,,,0.00,WeatherCatV1.12B45,2013-02-07 10:04:00,
2013-02-07 05:09:00,16.8,2.3,30.43,North,6,0.0,0.0,52,0.00,,,0.00,WeatherCatV1.12B45,2013-02-07 10:09:00,
2013-02-07 05:14:00,16.6,2.9,30.43,North,6,0.0,0.0,54,0.00,,,0.00,WeatherCatV1.12B45,2013-02-07 10:14:00,
2013-02-07 05:19:00,16.3,2.2,30.43,North,6,0.0,2.0,53,0.00,,,0.00,WeatherCatV1.12B45,2013-02-07 10:19:00,
2013-02-07 05:24:00,16.3,2.6,30.43,North,6,0.0,2.0,54,0.00,,,0.00,WeatherCatV1.12B45,2013-02-07 10:24:00,
2013-02-07 05:29:00,16.1,2.0,30.44,North,6,1.0,1.0,53,0.00,,,0.00,WeatherCatV1.12B45,2013-02-07 10:29:00,
2013-02-07 05:34:00,16.1,2.0,30.43,NNW,346,3.0,3.0,53,0.00,,,0.00,WeatherCatV1.12B45,2013-02-07 10:34:00,
2013-02-07 05:39:00,16.4,1.5,30.43,NW,317,0.0,0.0,51,0.00,,,0.00,WeatherCatV1.12B45,2013-02-07 10:39:00,
2013-02-07 05:43:00,16.6,1.7,30.43,NW,317,0.0,0.0,51,0.00,,,0.00,WeatherCatV1.12B45,2013-02-07 10:43:00,
2013-02-07 05:48:00,16.6,2.1,30.43,NW,317,0.0,0.0,52,0.00,,,0.00,WeatherCatV1.12B45,2013-02-07 10:48:00,
2013-02-07 05:53:00,16.5,2.4,30.44,NW,317,0.0,0.0,53,0.00,,,0.00,WeatherCatV1.12B45,2013-02-07 10:53:00,
2013-02-07 05:58:00,16.1,2.4,30.44,NW,317,0.0,0.0,54,0.00,,,0.00,WeatherCatV1.12B45,2013-02-07 10:58:00,
2013-02-07 06:03:00,16.0,2.3,30.44,NW,317,0.0,0.0,54,0.00,,,0.00,WeatherCatV1.12B45,2013-02-07 11:03:00,
2013-02-07 06:08:00,15.8,2.5,30.44,NW,317,0.0,0.0,55,0.00,,,0.00,WeatherCatV1.12B45,2013-02-07 11:08:00,
2013-02-07 06:13:00,15.6,2.3,30.44,NW,317,0.0,0.0,55,0.00,,,0.00,WeatherCatV1.12B45,2013-02-07 11:13:00,
2013-02-07 06:18:00,15.5,1.9,30.44,NW,317,0.0,0.0,54,0.00,,,0.00,WeatherCatV1.12B45,2013-02-07 11:18:00,
2013-02-07 06:23:00,15.3,2.5,30.44,NW,317,0.0,2.0,56,0.00,,,0.00,WeatherCatV1.12B45,2013-02-07 11:23:00,
2013-02-07 06:28:00,15.0,2.5,30.45,NW,317,0.0,0.0,57,0.00,,,0.00,WeatherCatV1.12B45,2013-02-07 11:28:00,
2013-02-07 06:33:00,14.8,2.7,30.45,NW,317,0.0,0.0,58,0.00,,,0.00,WeatherCatV1.12B45,2013-02-07 11:33:00,
2013-02-07 06:38:00,14.8,3.1,30.46,NW,317,0.0,0.0,59,0.00,,,0.00,WeatherCatV1.12B45,2013-02-07 11:38:00,
2013-02-07 06:43:00,14.9,3.6,30.46,NW,317,0.0,0.0,60,0.00,,,0.00,WeatherCatV1.12B45,2013-02-07 11:43:00,
2013-02-07 06:48:00,14.7,3.7,30.46,NW,317,0.0,0.0,61,0.00,,,0.00,WeatherCatV1.12B45,2013-02-07 11:48:00,
2013-02-07 06:53:00,14.5,3.2,30.46,NW,317,0.0,0.0,60,0.00,,,0.00,WeatherCatV1.12B45,2013-02-07 11:53:00,
2013-02-07 06:58:00,14.3,2.6,30.47,NW,317,0.0,0.0,59,0.00,,,0.00,WeatherCatV1.12B45,2013-02-07 11:58:00,
2013-02-07 07:03:00,14.2,2.9,30.48,NW,317,0.0,0.0,60,0.00,,,0.00,WeatherCatV1.12B45,2013-02-07 12:03:00,
2013-02-07 07:08:00,14.0,3.1,30.48,NW,317,0.0,0.0,61,0.00,,,0.00,WeatherCatV1.12B45,2013-02-07 12:08:00,
2013-02-07 07:13:00,14.0,2.7,30.49,NW,317,0.0,0.0,60,0.00,,,0.00,WeatherCatV1.12B45,2013-02-07 12:13:00,
2013-02-07 07:14:00,14.0,3.1,30.49,NW,317,0.0,0.0,61,0.00,,,0.00,WeatherCatV1.12B45,2013-02-07 12:14:00,
2013-02-07 07:19:00,14.0,3.4,30.49,NW,317,0.0,0.0,62,0.00,,,0.00,WeatherCatV1.12B45,2013-02-07 12:19:00,
2013-02-07 07:24:00,14.0,3.8,30.49,NW,317,0.0,0.0,63,0.00,,,0.00,WeatherCatV1.12B45,2013-02-07 12:24:00,
2013-02-07 07:29:00,13.9,3.3,30.50,NW,317,0.0,0.0,62,0.00,,,0.00,WeatherCatV1.12B45,2013-02-07 12:29:00,
2013-02-07 07:34:00,14.0,4.1,30.50,NW,317,0.0,2.0,64,0.00,,,0.00,WeatherCatV1.12B45,2013-02-07 12:34:00,
2013-02-07 07:39:00,14.3,4.4,30.50,NW,317,0.0,0.0,64,0.00,,,0.00,WeatherCatV1.12B45,2013-02-07 12:39:00,
2013-02-07 07:44:00,14.8,4.9,30.50,NW,317,0.0,1.0,64,0.00,,,0.00,WeatherCatV1.12B45,2013-02-07 12:44:00,
2013-02-07 07:49:00,15.3,4.6,30.50,NW,317,0.0,0.0,62,0.00,,,0.00,WeatherCatV1.12B45,2013-02-07 12:49:00,
2013-02-07 07:54:00,15.9,4.1,30.51,NW,317,0.0,0.0,59,0.00,,,0.00,WeatherCatV1.12B45,2013-02-07 12:54:00,
2013-02-07 07:59:00,16.4,3.9,30.51,NW,317,3.0,3.0,57,0.00,,,0.00,WeatherCatV1.12B45,2013-02-07 12:59:00,
2013-02-07 08:04:00,16.9,3.6,30.51,NW,317,0.0,3.0,55,0.00,,,0.00,WeatherCatV1.12B45,2013-02-07 13:04:00,
2013-02-07 08:09:00,17.2,3.0,30.51,NW,317,1.0,4.0,53,0.00,,,0.00,WeatherCatV1.12B45,2013-02-07 13:09:00,
2013-02-07 08:14:00,17.7,3.1,30.51,NW,322,1.0,3.0,52,0.00,,,0.00,WeatherCatV1.12B45,2013-02-07 13:14:00,
2013-02-07 08:19:00,17.8,1.9,30.52,NW,322,2.0,4.0,49,0.00,,,0.00,WeatherCatV1.12B45,2013-02-07 13:19:00,
2013-02-07 08:24:00,18.2,2.3,30.53,NNE,24,0.0,4.0,49,0.00,,,0.00,WeatherCatV1.12B45,2013-02-07 13:24:00,
2013-02-07 08:29:00,18.5,2.1,30.53,NNE,22,0.0,3.0,48,0.00,,,0.00,WeatherCatV1.12B45,2013-02-07 13:29:00,
2013-02-07 08:34:00,18.5,1.7,30.53,North,0,2.0,4.0,47,0.00,,,0.00,WeatherCatV1.12B45,2013-02-07 13:34:00,
2013-02-07 08:39:00,18.2,1.8,30.53,North,356,3.0,7.0,48,0.00,,,0.00,WeatherCatV1.12B45,2013-02-07 13:39:00,
2013-02-07 08:44:00,18.0,1.7,30.53,North,9,2.0,5.0,48,0.00,,,0.00,WeatherCatV1.12B45,2013-02-07 13:44:00,
2013-02-07 08:49:00,18.2,1.8,30.53,NE,48,6.0,6.0,48,0.00,,,0.00,WeatherCatV1.12B45,2013-02-07 13:49:00,
2013-02-07 08:54:00,18.3,1.9,30.53,North,358,3.0,5.0,48,0.00,,,0.00,WeatherCatV1.12B45,2013-02-07 13:54:00,
2013-02-07 08:59:00,18.2,1.4,30.53,North,0,2.0,7.0,47,0.00,,,0.00,WeatherCatV1.12B45,2013-02-07 13:59:00,
2013-02-07 09:04:00,18.5,2.1,30.54,North,1,4.0,4.0,48,0.00,,,0.00,WeatherCatV1.12B45,2013-02-07 14:04:00,
2013-02-07 09:09:00,19.0,2.6,30.54,North,8,4.0,5.0,48,0.00,,,0.00,WeatherCatV1.12B45,2013-02-07 14:09:00,
2013-02-07 09:14:00,19.4,2.0,30.53,North,0,4.0,4.0,46,0.00,,,0.00,WeatherCatV1.12B45,2013-02-07 14:14:00,
2013-02-07 09:19:00,19.4,2.0,30.53,North,0,4.0,7.0,46,0.00,,,0.00,WeatherCatV1.12B45,2013-02-07 14:19:00,
2013-02-07 09:24:00,19.6,1.7,30.54,NNE,27,4.0,6.0,45,0.00,,,0.00,WeatherCatV1.12B45,2013-02-07 14:24:00,
2013-02-07 09:29:00,19.9,2.0,30.54,NNE,18,2.0,3.0,45,0.00,,,0.00,WeatherCatV1.12B45,2013-02-07 14:29:00,
2013-02-07 09:34:00,19.9,2.0,30.55,NNE,20,5.0,6.0,45,0.00,,,0.00,WeatherCatV1.12B45,2013-02-07 14:34:00,
2013-02-07 09:39:00,20.1,2.2,30.55,NNE,22,5.0,7.0,45,0.00,,,0.00,WeatherCatV1.12B45,2013-02-07 14:39:00,
2013-02-07 09:44:00,20.5,2.1,30.54,West,279,5.0,10.0,44,0.00,,,0.00,WeatherCatV1.12B45,2013-02-07 14:44:00,
2013-02-07 09:49:00,20.5,2.1,30.54,WSW,247,1.0,6.0,44,0.00,,,0.00,WeatherCatV1.12B45,2013-02-07 14:49:00,
2013-02-07 09:54:00,20.9,2.0,30.54,WSW,258,3.0,6.0,43,0.00,,,0.00,WeatherCatV1.12B45,2013-02-07 14:54:00,
2013-02-07 09:59:00,21.4,2.4,30.55,West,280,2.0,5.0,43,0.00,,,0.00,WeatherCatV1.12B45,2013-02-07 14:59:00,
2013-02-07 10:04:00,21.4,1.9,30.55,NNW,348,5.0,6.0,42,0.00,,,0.00,WeatherCatV1.12B45,2013-02-07 15:04:00,
2013-02-07 10:09:00,21.6,2.1,30.54,West,263,1.0,3.0,42,0.00,,,0.00,WeatherCatV1.12B45,2013-02-07 15:09:00,
2013-02-07 10:14:00,22.0,2.5,30.54,West,262,5.0,6.0,42,0.00,,,0.00,WeatherCatV1.12B45,2013-02-07 15:14:00,
2013-02-07 10:19:00,21.9,1.3,30.55,NW,306,5.0,6.0,40,0.00,,,0.00,WeatherCatV1.12B45,2013-02-07 15:19:00,
2013-02-07 10:24:00,22.0,1.9,30.55,NW,308,2.0,7.0,41,0.00,,,0.00,WeatherCatV1.12B45,2013-02-07 15:24:00,
2013-02-07 10:29:00,21.9,0.8,30.54,NW,314,3.0,6.0,39,0.00,,,0.00,WeatherCatV1.12B45,2013-02-07 15:29:00,
2013-02-07 10:34:00,22.2,1.6,30.55,NW,306,1.0,7.0,40,0.00,,,0.00,WeatherCatV1.12B45,2013-02-07 15:34:00,
2013-02-07 10:39:00,22.3,1.7,30.55,NNW,329,3.0,7.0,40,0.00,,,0.00,WeatherCatV1.12B45,2013-02-07 15:39:00,
2013-02-07 10:44:00,22.5,1.9,30.55,NW,324,2.0,4.0,40,0.00,,,0.00,WeatherCatV1.12B45,2013-02-07 15:44:00,
2013-02-07 10:49:00,22.9,1.7,30.55,North,351,5.0,6.0,39,0.00,,,0.00,WeatherCatV1.12B45,2013-02-07 15:49:00,
2013-02-07 10:54:00,22.9,2.2,30.55,North,358,4.0,5.0,40,0.00,,,0.00,WeatherCatV1.12B45,2013-02-07 15:54:00,
2013-02-07 10:55:00,22.9,2.2,30.55,North,11,3.0,6.0,40,0.00,,,0.00,WeatherCatV1.12B45,2013-02-07 15:55:00,
2013-02-07 11:00:00,22.9,1.1,30.55,North,1,5.0,7.0,38,0.00,,,0.00,WeatherCatV1.12B45,2013-02-07 16:00:00,
2013-02-07 11:05:00,22.8,1.0,30.54,NE,39,6.0,9.0,38,0.00,,,0.00,WeatherCatV1.12B45,2013-02-07 16:05:00,
2013-02-07 11:10:00,22.6,1.4,30.55,North,356,6.0,6.0,39,0.00,,,0.00,WeatherCatV1.12B45,2013-02-07 16:10:00,
2013-02-07 11:15:00,23.1,1.3,30.55,WNW,300,3.0,4.0,38,0.00,,,0.00,WeatherCatV1.12B45,2013-02-07 16:15:00,
2013-02-07 11:20:00,23.2,1.4,30.54,WNW,302,5.0,7.0,38,0.00,,,0.00,WeatherCatV1.12B45,2013-02-07 16:20:00,
2013-02-07 11:25:00,23.5,2.2,30.55,NNW,348,4.0,9.0,39,0.00,,,0.00,WeatherCatV1.12B45,2013-02-07 16:25:00,
2013-02-07 11:30:00,23.7,2.4,30.54,North,0,5.0,6.0,39,0.00,,,0.00,WeatherCatV1.12B45,2013-02-07 16:30:00,
2013-02-07 11:35:00,23.6,1.8,30.54,North,350,4.0,5.0,38,0.00,,,0.00,WeatherCatV1.12B45,2013-02-07 16:35:00,
2013-02-07 11:40:00,23.8,1.4,30.54,NNW,331,4.0,9.0,37,0.00,,,0.00,WeatherCatV1.12B45,2013-02-07 16:40:00,
2013-02-07 11:45:00,23.8,1.9,30.53,NNE,18,4.0,7.0,38,0.00,,,0.00,WeatherCatV1.12B45,2013-02-07 16:45:00,
2013-02-07 11:50:00,24.3,1.2,30.53,North,4,6.0,11.0,36,0.00,,,0.00,WeatherCatV1.12B45,2013-02-07 16:50:00,
2013-02-07 11:55:00,23.8,0.8,30.53,NNE,24,3.0,9.0,36,0.00,,,0.00,WeatherCatV1.12B45,2013-02-07 16:55:00,
2013-02-07 12:00:00,23.8,1.9,30.53,North,6,6.0,7.0,38,0.00,,,0.00,WeatherCatV1.12B45,2013-02-07 17:00:00,
2013-02-07 12:05:00,23.9,0.9,30.52,NNE,20,3.0,12.0,36,0.00,,,0.00,WeatherCatV1.12B45,2013-02-07 17:05:00,
2013-02-07 12:10:00,24.2,1.1,30.52,North,0,3.0,8.0,36,0.00,,,0.00,WeatherCatV1.12B45,2013-02-07 17:10:00,
2013-02-07 12:15:00,23.9,0.9,30.52,NNW,348,4.0,10.0,36,0.00,,,0.00,WeatherCatV1.12B45,2013-02-07 17:15:00,
2013-02-07 12:20:00,24.2,1.1,30.51,North,0,0.0,3.0,36,0.00,,,0.00,WeatherCatV1.12B45,2013-02-07 17:20:00,
2013-02-07 12:25:00,24.7,1.0,30.51,North,6,4.0,14.0,35,0.00,,,0.00,WeatherCatV1.12B45,2013-02-07 17:25:00,
2013-02-07 12:30:00,25.1,1.9,30.51,WSW,246,3.0,7.0,36,0.00,,,0.00,WeatherCatV1.12B45,2013-02-07 17:30:00,
2013-02-07 12:35:00,25.4,2.2,30.51,WSW,257,3.0,6.0,36,0.00,,,0.00,WeatherCatV1.12B45,2013-02-07 17:35:00,
2013-02-07 12:40:00,25.0,0.6,30.51,North,359,12.0,14.0,34,0.00,,,0.00,WeatherCatV1.12B45,2013-02-07 17:40:00,
2013-02-07 12:42:00,24.8,0.5,30.51,North,10,5.0,14.0,34,0.00,,,0.00,WeatherCatV1.12B45,2013-02-07 17:42:00,
2013-02-07 12:47:00,25.1,1.3,30.51,NNW,333,7.0,7.0,35,0.00,,,0.00,WeatherCatV1.12B45,2013-02-07 17:47:00,
2013-02-07 12:52:00,25.2,1.4,30.50,North,351,5.0,8.0,35,0.00,,,0.00,WeatherCatV1.12B45,2013-02-07 17:52:00,
2013-02-07 12:53:00,25.2,1.4,30.51,North,355,6.0,8.0,35,0.00,,,0.00,WeatherCatV1.12B45,2013-02-07 17:53:00,
2013-02-07 12:58:00,25.4,2.2,30.50,WSW,249,1.0,5.0,36,0.00,,,0.00,WeatherCatV1.12B45,2013-02-07 17:58:00,
2013-02-07 13:03:00,25.4,1.0,30.51,NNW,327,4.0,6.0,34,0.00,,,0.00,WeatherCatV1.12B45,2013-02-07 18:03:00,
2013-02-07 13:08:00,25.7,0.6,30.51,North,2,7.0,8.0,33,0.00,,,0.00,WeatherCatV1.12B45,2013-02-07 18:08:00,
2013-02-07 13:13:00,25.6,1.2,30.51,North,4,5.0,6.0,34,0.00,,,0.00,WeatherCatV1.12B45,2013-02-07 18:13:00,
2013-02-07 13:18:00,25.9,1.4,30.50,North,357,5.0,7.0,34,0.00,,,0.00,WeatherCatV1.12B45,2013-02-07 18:18:00,
2013-02-07 13:23:00,26.0,1.5,30.50,NW,315,4.0,8.0,34,0.00,,,0.00,WeatherCatV1.12B45,2013-02-07 18:23:00,
2013-02-07 13:28:00,26.4,2.5,30.50,WNW,284,2.0,8.0,35,0.00,,,0.00,WeatherCatV1.12B45,2013-02-07 18:28:00,
2013-02-07 13:33:00,26.2,1.7,30.49,NNW,336,2.0,7.0,34,0.00,,,0.00,WeatherCatV1.12B45,2013-02-07 18:33:00,
2013-02-07 13:38:00,26.5,2.6,30.50,NNW,344,2.0,4.0,35,0.00,,,0.00,WeatherCatV1.12B45,2013-02-07 18:38:00,
2013-02-07 13:43:00,27.4,3.4,30.49,NW,314,3.0,5.0,35,0.00,,,0.00,WeatherCatV1.12B45,2013-02-07 18:43:00,
2013-02-07 13:48:00,27.1,1.9,30.50,North,349,2.0,6.0,33,0.00,,,0.00,WeatherCatV1.12B45,2013-02-07 18:48:00,
2013-02-07 13:53:00,26.8,2.2,30.49,ENE,57,5.0,6.0,34,0.00,,,0.00,WeatherCatV1.12B45,2013-02-07 18:53:00,
2013-02-07 13:58:00,26.6,1.4,30.48,North,0,2.0,6.0,33,0.00,,,0.00,WeatherCatV1.12B45,2013-02-07 18:58:00,
2013-02-07 14:03:00,26.8,2.2,30.49,NNE,16,4.0,5.0,34,0.00,,,0.00,WeatherCatV1.12B45,2013-02-07 19:03:00,
2013-02-07 14:08:00,26.9,2.3,30.48,NNE,16,2.0,3.0,34,0.00,,,0.00,WeatherCatV1.12B45,2013-02-07 19:08:00,
2013-02-07 14:13:00,26.8,1.6,30.48,WNW,303,2.0,8.0,33,0.00,,,0.00,WeatherCatV1.12B45,2013-02-07 19:13:00,
2013-02-07 14:18:00,26.9,2.9,30.48,WNW,303,4.0,4.0,35,0.00,,,0.00,WeatherCatV1.12B45,2013-02-07 19:18:00,
2013-02-07 14:22:00,26.9,2.3,30.48,NE,37,4.0,8.0,34,0.00,,,0.00,WeatherCatV1.12B45,2013-02-07 19:22:00,
2013-02-07 14:27:00,26.9,2.3,30.48,ENE,58,4.0,8.0,34,0.00,,,0.00,WeatherCatV1.12B45,2013-02-07 19:27:00,
2013-02-07 14:32:00,26.6,2.1,30.48,NE,44,1.0,4.0,34,0.00,,,0.00,WeatherCatV1.12B45,2013-02-07 19:32:00,
2013-02-07 14:37:00,26.9,2.3,30.48,ENE,62,4.0,6.0,34,0.00,,,0.00,WeatherCatV1.12B45,2013-02-07 19:37:00,
2013-02-07 14:42:00,26.9,2.3,30.48,NE,56,3.0,4.0,34,0.00,,,0.00,WeatherCatV1.12B45,2013-02-07 19:42:00,
2013-02-07 14:47:00,26.8,1.6,30.48,NE,51,7.0,9.0,33,0.00,,,0.00,WeatherCatV1.12B45,2013-02-07 19:47:00,
2013-02-07 14:52:00,26.6,2.1,30.48,ENE,58,6.0,8.0,34,0.00,,,0.00,WeatherCatV1.12B45,2013-02-07 19:52:00,
2013-02-07 14:57:00,26.7,2.1,30.49,ENE,57,3.0,5.0,34,0.00,,,0.00,WeatherCatV1.12B45,2013-02-07 19:57:00,
2013-02-07 15:02:00,26.6,2.1,30.49,ENE,57,1.0,4.0,34,0.00,,,0.00,WeatherCatV1.12B45,2013-02-07 20:02:00,
2013-02-07 15:07:00,26.6,2.1,30.49,ENE,57,2.0,4.0,34,0.00,,,0.00,WeatherCatV1.12B45,2013-02-07 20:07:00,
2013-02-07 15:12:00,26.5,2.0,30.49,ENE,57,3.0,5.0,34,0.00,,,0.00,WeatherCatV1.12B45,2013-02-07 20:12:00,
2013-02-07 15:17:00,26.5,1.3,30.49,ENE,57,2.0,4.0,33,0.00,,,0.00,WeatherCatV1.12B45,2013-02-07 20:17:00,
2013-02-07 15:22:00,26.6,2.7,30.49,East,97,3.0,5.0,35,0.00,,,0.00,WeatherCatV1.12B45,2013-02-07 20:22:00,
2013-02-07 15:27:00,26.8,2.9,30.49,ESE,114,0.0,4.0,35,0.00,,,0.00,WeatherCatV1.12B45,2013-02-07 20:27:00,
2013-02-07 15:32:00,26.8,2.2,30.49,ESE,114,2.0,5.0,34,0.00,,,0.00,WeatherCatV1.12B45,2013-02-07 20:32:00,
2013-02-07 15:37:00,26.6,2.1,30.49,ESE,114,3.0,4.0,34,0.00,,,0.00,WeatherCatV1.12B45,2013-02-07 20:37:00,
2013-02-07 15:42:00,26.5,2.0,30.49,ESE,113,1.0,4.0,34,0.00,,,0.00,WeatherCatV1.12B45,2013-02-07 20:42:00,
2013-02-07 15:47:00,26.3,2.4,30.49,ESE,113,0.0,4.0,35,0.00,,,0.00,WeatherCatV1.12B45,2013-02-07 20:47:00,
2013-02-07 15:52:00,26.5,2.0,30.49,ESE,113,2.0,4.0,34,0.00,,,0.00,WeatherCatV1.12B45,2013-02-07 20:52:00,
2013-02-07 15:57:00,26.5,2.0,30.49,ESE,113,1.0,4.0,34,0.00,,,0.00,WeatherCatV1.12B45,2013-02-07 20:57:00,
2013-02-07 16:02:00,26.3,1.8,30.49,ESE,103,3.0,5.0,34,0.00,,,0.00,WeatherCatV1.12B45,2013-02-07 21:02:00,
2013-02-07 16:07:00,26.4,1.9,30.49,ESE,103,1.0,4.0,34,0.00,,,0.00,WeatherCatV1.12B45,2013-02-07 21:07:00,
2013-02-07 16:12:00,26.3,1.8,30.49,ESE,103,1.0,3.0,34,0.00,,,0.00,WeatherCatV1.12B45,2013-02-07 21:12:00,
2013-02-07 16:15:00,26.3,2.4,30.49,ESE,103,2.0,2.0,35,0.00,,,0.00,WeatherCatV1.12B45,2013-02-07 21:15:00,
2013-02-07 16:20:00,26.3,1.8,30.50,ESE,103,0.0,4.0,34,0.00,,,0.00,WeatherCatV1.12B45,2013-02-07 21:20:00,
2013-02-07 16:25:00,26.3,1.8,30.49,ESE,103,1.0,4.0,34,0.00,,,0.00,WeatherCatV1.12B45,2013-02-07 21:25:00,
2013-02-07 16:30:00,26.3,2.4,30.49,ESE,103,0.0,4.0,35,0.00,,,0.00,WeatherCatV1.12B45,2013-02-07 21:30:00,
2013-02-07 16:35:00,26.2,1.7,30.49,ESE,102,6.0,6.0,34,0.00,,,0.00,WeatherCatV1.12B45,2013-02-07 21:35:00,
2013-02-07 16:40:00,26.2,1.7,30.49,ESE,103,1.0,3.0,34,0.00,,,0.00,WeatherCatV1.12B45,2013-02-07 21:40:00,
2013-02-07 16:45:00,26.0,2.1,30.48,ESE,103,3.0,4.0,35,0.00,,,0.00,WeatherCatV1.12B45,2013-02-07 21:45:00,
2013-02-07 16:50:00,26.0,2.1,30.48,East,87,3.0,5.0,35,0.00,,,0.00,WeatherCatV1.12B45,2013-02-07 21:50:00,
2013-02-07 16:55:00,25.9,2.1,30.49,East,82,1.0,4.0,35,0.00,,,0.00,WeatherCatV1.12B45,2013-02-07 21:55:00,
2013-02-07 17:00:00,25.7,1.9,30.48,East,82,0.0,2.0,35,0.00,,,0.00,WeatherCatV1.12B45,2013-02-07 22:00:00,
2013-02-07 17:05:00,25.6,1.8,30.48,East,82,0.0,2.0,35,0.00,,,0.00,WeatherCatV1.12B45,2013-02-07 22:05:00,
2013-02-07 17:10:00,25.6,1.8,30.49,East,82,3.0,3.0,35,0.00,,,0.00,WeatherCatV1.12B45,2013-02-07 22:10:00,
2013-02-07 17:15:00,25.4,1.6,30.48,East,82,0.0,2.0,35,0.00,,,0.00,WeatherCatV1.12B45,2013-02-07 22:15:00,
2013-02-07 17:20:00,25.4,1.0,30.49,East,82,0.0,3.0,34,0.00,,,0.00,WeatherCatV1.12B45,2013-02-07 22:20:00,
2013-02-07 17:25:00,25.4,1.6,30.49,East,82,1.0,4.0,35,0.00,,,0.00,WeatherCatV1.12B45,2013-02-07 22:25:00,
2013-02-07 17:30:00,25.4,1.6,30.49,East,82,0.0,3.0,35,0.00,,,0.00,WeatherCatV1.12B45,2013-02-07 22:30:00,
2013-02-07 17:35:00,25.4,2.2,30.49,East,82,2.0,3.0,36,0.00,,,0.00,WeatherCatV1.12B45,2013-02-07 22:35:00,
2013-02-07 17:40:00,25.4,1.6,30.49,East,82,1.0,3.0,35,0.00,,,0.00,WeatherCatV1.12B45,2013-02-07 22:40:00,
2013-02-07 17:45:00,25.4,1.6,30.50,East,82,1.0,3.0,35,0.00,,,0.00,WeatherCatV1.12B45,2013-02-07 22:45:00,
2013-02-07 17:50:00,25.3,1.5,30.50,East,82,0.0,2.0,35,0.00,,,0.00,WeatherCatV1.12B45,2013-02-07 22:50:00,
2013-02-07 17:55:00,25.3,1.5,30.50,East,82,1.0,3.0,35,0.00,,,0.00,WeatherCatV1.12B45,2013-02-07 22:55:00,
2013-02-07 18:04:00,25.3,2.1,30.50,East,81,2.0,3.0,36,0.00,,,0.00,WeatherCatV1.12B45,2013-02-07 23:04:00,
2013-02-07 18:09:00,25.3,2.1,30.51,East,81,2.0,4.0,36,0.00,,,0.00,WeatherCatV1.12B45,2013-02-07 23:09:00,
2013-02-07 18:10:00,25.1,1.9,30.51,East,81,1.0,4.0,36,0.00,,,0.00,WeatherCatV1.12B45,2013-02-07 23:10:00,
2013-02-07 18:16:00,25.1,1.9,30.50,East,82,1.0,2.0,36,0.00,,,0.00,WeatherCatV1.12B45,2013-02-07 23:16:00,
2013-02-07 18:21:00,25.1,1.9,30.52,East,81,1.0,3.0,36,0.00,,,0.00,WeatherCatV1.12B45,2013-02-07 23:21:00,
2013-02-07 18:26:00,25.1,2.5,30.51,East,82,1.0,2.0,37,0.00,,,0.00,WeatherCatV1.12B45,2013-02-07 23:26:00,
2013-02-07 18:31:00,24.9,1.8,30.52,East,81,1.0,4.0,36,0.00,,,0.00,WeatherCatV1.12B45,2013-02-07 23:31:00,
2013-02-07 18:36:00,24.9,1.8,30.52,East,81,0.0,0.0,36,0.00,,,0.00,WeatherCatV1.12B45,2013-02-07 23:36:00,
2013-02-07 18:41:00,24.8,1.7,30.52,East,82,0.0,3.0,36,0.00,,,0.00,WeatherCatV1.12B45,2013-02-07 23:41:00,
2013-02-07 18:46:00,24.8,1.7,30.52,East,82,1.0,2.0,36,0.00,,,0.00,WeatherCatV1.12B45,2013-02-07 23:46:00,
2013-02-07 18:51:00,24.8,1.7,30.52,East,82,4.0,4.0,36,0.00,,,0.00,WeatherCatV1.12B45,2013-02-07 23:51:00,
2013-02-07 18:56:00,24.8,1.1,30.52,East,81,1.0,3.0,35,0.00,,,0.00,WeatherCatV1.12B45,2013-02-07 23:56:00,
2013-02-07 19:01:00,24.7,1.0,30.52,East,81,3.0,4.0,35,0.00,,,0.00,WeatherCatV1.12B45,2013-02-08 00:01:00,
2013-02-07 19:06:00,24.7,1.0,30.52,East,81,0.0,5.0,35,0.00,,,0.00,WeatherCatV1.12B45,2013-02-08 00:06:00,
2013-02-07 19:11:00,24.7,1.0,30.52,East,81,1.0,2.0,35,0.00,,,0.00,WeatherCatV1.12B45,2013-02-08 00:11:00,
2013-02-07 19:16:00,24.5,1.4,30.52,East,81,1.0,2.0,36,0.00,,,0.00,WeatherCatV1.12B45,2013-02-08 00:16:00,
2013-02-07 19:21:00,24.5,0.8,30.51,ENE,78,2.0,5.0,35,0.00,,,0.00,WeatherCatV1.12B45,2013-02-08 00:21:00,
2013-02-07 19:26:00,24.5,0.8,30.52,ENE,78,2.0,3.0,35,0.00,,,0.00,WeatherCatV1.12B45,2013-02-08 00:26:00,
2013-02-07 19:31:00,24.4,0.7,30.52,ENE,72,4.0,4.0,35,0.00,,,0.00,WeatherCatV1.12B45,2013-02-08 00:31:00,
2013-02-07 19:36:00,24.4,0.7,30.52,ENE,72,1.0,2.0,35,0.00,,,0.00,WeatherCatV1.12B45,2013-02-08 00:36:00,
2013-02-07 19:41:00,24.4,0.7,30.53,ENE,72,0.0,3.0,35,0.00,,,0.00,WeatherCatV1.12B45,2013-02-08 00:41:00,
2013-02-07 19:46:00,24.4,0.7,30.52,ENE,72,1.0,3.0,35,0.00,,,0.00,WeatherCatV1.12B45,2013-02-08 00:46:00,
2013-02-07 19:51:00,24.2,-0.1,30.52,NNE,33,5.0,6.0,34,0.00,,,0.00,WeatherCatV1.12B45,2013-02-08 00:51:00,
2013-02-07 19:56:00,24.2,-0.7,30.52,NNE,33,4.0,7.0,33,0.00,,,0.00,WeatherCatV1.12B45,2013-02-08 00:56:00,
2013-02-07 20:01:00,24.2,-0.7,30.52,ENE,65,0.0,3.0,33,0.00,,,0.00,WeatherCatV1.12B45,2013-02-08 01:01:00,
2013-02-07 20:06:00,24.2,-0.1,30.53,ENE,65,1.0,4.0,34,0.00,,,0.00,WeatherCatV1.12B45,2013-02-08 01:06:00,
2013-02-07 20:11:00,24.1,-0.8,30.51,ENE,65,2.0,3.0,33,0.00,,,0.00,WeatherCatV1.12B45,2013-02-08 01:11:00,
2013-02-07 20:16:00,24.1,-0.8,30.52,East,79,4.0,7.0,33,0.00,,,0.00,WeatherCatV1.12B45,2013-02-08 01:16:00,
2013-02-07 20:21:00,24.1,-0.8,30.52,East,80,1.0,3.0,33,0.00,,,0.00,WeatherCatV1.12B45,2013-02-08 01:21:00,
2013-02-07 20:26:00,24.1,-0.8,30.52,East,80,0.0,1.0,33,0.00,,,0.00,WeatherCatV1.12B45,2013-02-08 01:26:00,
2013-02-07 20:31:00,24.1,-0.8,30.52,East,80,0.0,5.0,33,0.00,,,0.00,WeatherCatV1.12B45,2013-02-08 01:31:00,
2013-02-07 20:36:00,23.9,-1.0,30.51,East,80,3.0,4.0,33,0.00,,,0.00,WeatherCatV1.12B45,2013-02-08 01:36:00,
2013-02-07 20:41:00,24.0,-0.9,30.52,NE,51,3.0,4.0,33,0.00,,,0.00,WeatherCatV1.12B45,2013-02-08 01:41:00,
2013-02-07 20:46:00,23.9,-1.0,30.53,East,93,3.0,5.0,33,0.00,,,0.00,WeatherCatV1.12B45,2013-02-08 01:46:00,
2013-02-07 20:51:00,23.7,-1.8,30.52,East,93,2.0,3.0,32,0.00,,,0.00,WeatherCatV1.12B45,2013-02-08 01:51:00,
2013-02-07 20:56:00,23.7,-1.1,30.52,East,94,4.0,5.0,33,0.00,,,0.00,WeatherCatV1.12B45,2013-02-08 01:56:00,
2013-02-07 21:01:00,23.8,-1.1,30.53,East,94,1.0,3.0,33,0.00,,,0.00,WeatherCatV1.12B45,2013-02-08 02:01:00,
2013-02-07 21:06:00,23.8,-1.1,30.52,East,94,2.0,4.0,33,0.00,,,0.00,WeatherCatV1.12B45,2013-02-08 02:06:00,
2013-02-07 21:11:00,23.8,-1.7,30.53,East,94,0.0,4.0,32,0.00,,,0.00,WeatherCatV1.12B45,2013-02-08 02:11:00,
2013-02-07 21:16:00,23.8,-1.7,30.52,East,93,3.0,3.0,32,0.00,,,0.00,WeatherCatV1.12B45,2013-02-08 02:16:00,
2013-02-07 21:21:00,23.6,-1.9,30.48,East,93,1.0,3.0,32,0.00,,,0.00,WeatherCatV1.12B45,2013-02-08 02:21:00,
2013-02-07 21:26:00,23.6,-1.9,30.52,East,93,1.0,3.0,32,0.00,,,0.00,WeatherCatV1.12B45,2013-02-08 02:26:00,
2013-02-07 21:31:00,23.6,-1.9,30.54,East,93,4.0,4.0,32,0.00,,,0.00,WeatherCatV1.12B45,2013-02-08 02:31:00,
2013-02-07 21:36:00,23.6,-1.9,30.52,East,94,0.0,4.0,32,0.00,,,0.00,WeatherCatV1.12B45,2013-02-08 02:36:00,
2013-02-07 21:41:00,23.6,-1.9,30.52,East,92,1.0,3.0,32,0.00,,,0.00,WeatherCatV1.12B45,2013-02-08 02:41:00,
2013-02-07 21:46:00,23.6,-1.9,30.51,East,92,0.0,3.0,32,0.00,,,0.00,WeatherCatV1.12B45,2013-02-08 02:46:00,
2013-02-07 21:51:00,23.6,-1.9,30.51,East,92,2.0,3.0,32,0.00,,,0.00,WeatherCatV1.12B45,2013-02-08 02:51:00,
2013-02-07 21:56:00,23.6,-1.9,30.52,East,81,0.0,2.0,32,0.00,,,0.00,WeatherCatV1.12B45,2013-02-08 02:56:00,
2013-02-07 22:01:00,23.5,-1.3,30.51,East,81,2.0,3.0,33,0.00,,,0.00,WeatherCatV1.12B45,2013-02-08 03:01:00,
2013-02-07 22:06:00,23.5,-1.3,30.51,East,81,0.0,3.0,33,0.00,,,0.00,WeatherCatV1.12B45,2013-02-08 03:06:00,
2013-02-07 22:11:00,23.5,-1.3,30.50,East,81,4.0,5.0,33,0.00,,,0.00,WeatherCatV1.12B45,2013-02-08 03:11:00,
2013-02-07 22:16:00,23.5,-1.3,30.51,East,80,0.0,0.0,33,0.00,,,0.00,WeatherCatV1.12B45,2013-02-08 03:16:00,
2013-02-07 22:21:00,23.5,-1.3,30.52,East,80,1.0,4.0,33,0.00,,,0.00,WeatherCatV1.12B45,2013-02-08 03:21:00,
2013-02-07 22:26:00,23.4,-1.4,30.51,East,80,1.0,2.0,33,0.00,,,0.00,WeatherCatV1.12B45,2013-02-08 03:26:00,
2013-02-07 22:31:00,23.3,-1.5,30.51,East,80,0.0,0.0,33,0.00,,,0.00,WeatherCatV1.12B45,2013-02-08 03:31:00,
2013-02-07 22:36:00,23.3,-1.5,30.51,East,80,2.0,4.0,33,0.00,,,0.00,WeatherCatV1.12B45,2013-02-08 03:36:00,
2013-02-07 22:41:00,23.5,-1.3,30.51,East,80,2.0,2.0,33,0.00,,,0.00,WeatherCatV1.12B45,2013-02-08 03:41:00,
2013-02-07 22:46:00,23.3,-1.5,30.51,East,80,0.0,3.0,33,0.00,,,0.00,WeatherCatV1.12B45,2013-02-08 03:46:00,
2013-02-07 22:51:00,23.4,-1.4,30.50,East,80,2.0,4.0,33,0.00,,,0.00,WeatherCatV1.12B45,2013-02-08 03:51:00,
2013-02-07 22:56:00,23.3,-1.5,30.50,East,80,2.0,4.0,33,0.00,,,0.00,WeatherCatV1.12B45,2013-02-08 03:56:00,
2013-02-07 23:01:00,23.3,-1.5,30.51,East,80,1.0,2.0,33,0.00,,,0.00,WeatherCatV1.12B45,2013-02-08 04:01:00,
2013-02-07 23:06:00,23.4,-0.8,30.50,East,80,0.0,0.0,34,0.00,,,0.00,WeatherCatV1.12B45,2013-02-08 04:06:00,
2013-02-07 23:11:00,23.5,-0.1,30.51,East,80,0.0,0.0,35,0.00,,,0.00,WeatherCatV1.12B45,2013-02-08 04:11:00,
2013-02-07 23:16:00,23.5,-0.7,30.51,East,80,0.0,0.0,34,0.00,,,0.00,WeatherCatV1.12B45,2013-02-08 04:16:00,
2013-02-07 23:21:00,23.5,-0.1,30.51,East,80,0.0,0.0,35,0.00,,,0.00,WeatherCatV1.12B45,2013-02-08 04:21:00,
2013-02-07 23:26:00,23.5,-0.1,30.51,East,80,0.0,2.0,35,0.00,,,0.00,WeatherCatV1.12B45,2013-02-08 04:26:00,
2013-02-07 23:31:00,23.5,-0.1,30.52,East,80,0.0,0.0,35,0.00,,,0.00,WeatherCatV1.12B45,2013-02-08 04:31:00,
2013-02-07 23:36:00,23.5,0.5,30.51,East,80,0.0,1.0,36,0.00,,,0.00,WeatherCatV1.12B45,2013-02-08 04:36:00,
2013-02-07 23:41:00,23.5,0.5,30.52,East,80,0.0,0.0,36,0.00,,,0.00,WeatherCatV1.12B45,2013-02-08 04:41:00,
2013-02-07 23:46:00,23.5,0.5,30.51,East,80,0.0,2.0,36,0.00,,,0.00,WeatherCatV1.12B45,2013-02-08 04:46:00,
2013-02-07 23:51:00,23.5,0.5,30.52,East,80,1.0,2.0,36,0.00,,,0.00,WeatherCatV1.12B45,2013-02-08 04:51:00,
2013-02-07 23:56:00,23.5,0.5,30.51,East,80,0.0,2.0,36,0.00,,,0.00,WeatherCatV1.12B45,2013-02-08 04:56:00,